Regional Weather Roundup
Issued by NWS Raleigh/Durham, NC

Home | Current Version | Previous Version | Text Only | Print | Product List | Glossary On
Versions: 1 2 3 4 5 6 7 8 9 10 11 12 13 14 15 16 17 18 19 20 21 22 23 24 25 26 27 28
000
ASUS42 KRAH 251810
RWRRAH
NORTH CAROLINA WEATHER ROUNDUP
NATIONAL WEATHER SERVICE RALEIGH NC
200 PM EDT SAT OCT 25 2014

NOTE: "FAIR" INDICATES FEW OR NO CLOUDS BELOW 12,000 FEET WITH NO
SIGNIFICANT WEATHER AND/OR OBSTRUCTIONS TO VISIBILITY.

NCZ001-053-055-056-065-067-251900-
WESTERN NORTH CAROLINA

CITY           SKY/WX    TMP DP  RH WIND       PRES   REMARKS
ASHEVILLE      SUNNY     68  37  32 VRB7G17   30.04F
JEFFERSON      SUNNY     64  28  25 W7        30.03F
MORGANTON      SUNNY     71  37  28 S3        30.03F
HICKORY        SUNNY     71  31  22 VRB5      29.99F
RUTHERFORDTON  SUNNY     71  33  24 SW7       30.00F
MOUNT AIRY     SUNNY     70  36  28 SW5       29.99F
BOONE          SUNNY     62  23  22 W16G24    30.05F
$$

NCZ021-022-025-041-071-084-088-251900-
CENTRAL NORTH CAROLINA

CITY           SKY/WX    TMP DP  RH WIND       PRES   REMARKS
CHARLOTTE      SUNNY     71  29  21 VRB6      30.00F
GREENSBORO     SUNNY     69  37  30 CALM      29.96F
WINSTON-SALEM  SUNNY     71  31  22 W6        29.98F
RALEIGH-DURHAM SUNNY     68  42  38 W5        29.96F
FORT BRAGG     SUNNY     70  42  36 W8        29.95F
FAYETTEVILLE   SUNNY     71  42  35 VRB5      29.95F
BURLINGTON     SUNNY     67  36  31 S6        29.96F
LAURINBURG     SUNNY     72  35  25 NW6       29.96F
$$

NCZ011-015-027-028-043-044-047-080-103-251900-
NORTHEASTERN NORTH CAROLINA

CITY           SKY/WX    TMP DP  RH WIND       PRES   REMARKS
ROCKY MT-WILSO SUNNY     70  43  37 CALM      29.94F
GREENVILLE     SUNNY     70  45  40 CALM      29.96F
WASHINGTON     SUNNY     69  45  41 CALM      29.93F
ELIZABETH CITY SUNNY     72  43  35 N5        29.91F
MANTEO         SUNNY     65  48  53 N7        29.92F
CAPE HATTERAS  SUNNY     66  55  67 NW6       29.93F
$$

NCZ078-087-090-091-093-098-101-251900-
SOUTHEASTERN NORTH CAROLINA

CITY           SKY/WX    TMP DP  RH WIND       PRES   REMARKS
LUMBERTON      SUNNY     74  38  27 VRB6      29.95F
GOLDSBORO      SUNNY     71  49  45 W6        29.92F
KINSTON        SUNNY     72  45  37 NW5       29.94F
KENANSVILLE      N/A     70  43  37 CALM      29.95F
NEW BERN       SUNNY     73  43  33 N3        29.94F
CHERRY POINT   SUNNY     71  46  40 CALM      29.94F
BEAUFORT       SUNNY     71  46  40 N5        29.94F
JACKSONVILLE   SUNNY     72  46  39 VRB5      29.93F
WILMINGTON     SUNNY     73  43  33 CALM      29.94F
$$




USA.gov is the U.S. government's official web portal to all federal, state and local government web resources and services.